Home   Weather   Barquisimeto   Past weeks

Flag for Venezuela Past Weather in Barquisimeto, Venezuela — Yesterday and Last 2 Weeks

Now
73 °F

Passing clouds.


Feels Like: 72 °F
Forecast: 69 / 89 °F
Wind: No wind

Location: Barquisimeto Airport

Current Time: Sep 29, 2016 at 11:25:58 PM

Latest Report: Sep 29, 2016 at 11:00 PM


Visibility: N/A

Pressure: 29.98 "Hg (28.07 "Hg at 569m altitude)

Humidity: 89%

Dew Point: 70 °F

Location of BarquisimetoLocation

Past Weather in Barquisimeto — Graph

°F

Barquisimeto Temperature Yesterday

Maximum temperature yesterday: 91 °F (at 2:00 PM)
Minimum temperature yesterday: 70 °F (at 6:00 AM)
Average temperature yesterday: 82 °F

High & Low Weather Summary for the Past Weeks

 TemperatureHumidityPressure
High93 °F (Sep 29, 1:00 PM)100% (Sep 20, 9:00 AM)30.07 "Hg (Sep 20, 9:00 AM)
Low63 °F (Sep 20, 9:00 AM)30% (Sep 22, 2:00 PM)29.83 "Hg (Sep 29, 4:00 PM)
Average80 °F65%30.00 "Hg
* Reported Sep 14 10:00 PM — Sep 29 10:00 PM, Barquisimeto, Weather by CustomWeather, © 2016

Note: Actual official high and low records may vary slightly from our data, if they occured in-between our weather recording intervals... More about our weather records

Advertising

Barquisimeto Weather History for the Previous 24 Hours

Scroll right to see more
 ConditionsComfort  
Time TempWeatherWind HumidityBarometerVisibility
10:00 PM
Thu, Sep 29
73 °FPassing clouds.6 mph89%29.98 "Hg4 mi
9:00 PM73 °FThunderstorms. Passing clouds.3 mph89%29.95 "HgN/A
8:00 PM75 °FPassing clouds.3 mph83%29.92 "Hg5 mi
7:00 PM75 °FThunderstorms. Passing clouds.5 mph83%29.89 "HgN/A
6:00 PM79 °FThunderstorms. Passing clouds.13 mph70%29.89 "HgN/A
5:00 PM88 °FScattered showers. Partly sunny.8 mph46%29.83 "HgN/A
4:00 PM93 °FThunderstorms. Scattered clouds.12 mph36%29.83 "HgN/A
3:00 PM93 °FScattered clouds.14 mph36%29.89 "HgN/A
2:00 PM93 °FScattered clouds.9 mph36%29.92 "HgN/A
1:00 PM93 °FPassing clouds.8 mph41%29.98 "HgN/A
12:00 PM91 °FPassing clouds.8 mph38%29.98 "HgN/A
11:00 AM88 °FPassing clouds.6 mph43%30.01 "HgN/A
10:00 AM84 °FPassing clouds.8 mph55%30.01 "HgN/A
9:00 AM81 °FPassing clouds.3 mph62%29.98 "HgN/A
8:00 AM77 °FPassing clouds.3 mph74%29.98 "HgN/A
7:00 AM72 °FPassing clouds.2 mph88%29.95 "HgN/A
6:00 AM70 °FPassing clouds.1 mph94%29.95 "HgN/A
2:00 AM73 °FPassing clouds.5 mph83%30.01 "HgN/A
11:00 PM
Wed, Sep 28
75 °FPassing clouds.5 mph83%30.04 "HgN/A
Weather by CustomWeather, © 2016

See weather overviewHow to use our weather pages